Voltar ao catálogo

DMSP 5D-2 F13 DEB

AtivoSSO
NORAD 40582·DEBRIS·🇺🇸 United States

Lançado Mar 24, 1995 de Vandenberg Space Force Base

Loading…

Próximas Passagens (próximas 24 horas)

TLE

AtualizadoSource: Space-Track

Época: Sep 12, 2026, 12:36 UTC

1 40582U 95015ER  26255.52539337  .00003754  00000-0  14372-2 0  9994
2 40582  98.7110 162.7543 0067833 227.8131 131.7279 14.29944464586945

Acompanhe DMSP 5D-2 F13 DEB em tempo real com AllMySat

Download on the App Store